| time (UTC) | temp F | wind direction | speed knots | gust knots | rain 1hr in | rain 24hr in | rain mn in | humidity % | barometer mb |
| 20260510161517 | 63 | 270 | 1.7 | 3.5 | 0.00 | 0.11 | 0.11 | 52 | 1011.6 |
| 20260510160517 | 63 | 270 | 2.6 | 7.8 | 0.00 | 0.11 | 0.11 | 51 | 1011.7 |
| 20260510155518 | 63 | 338 | 2.6 | 4.3 | 0.00 | 0.11 | 0.11 | 52 | 1011.9 |
| 20260510154518 | 62 | 338 | 1.7 | 3.5 | 0.01 | 0.11 | 0.11 | 53 | 1011.9 |
| 20260510153518 | 62 | 315 | 2.6 | 5.2 | 0.04 | 0.11 | 0.11 | 54 | 1012.0 |
| 20260510152518 | 62 | 338 | 3.5 | 5.2 | 0.04 | 0.11 | 0.11 | 54 | 1012.0 |
| 20260510151518 | 61 | 315 | 3.5 | 7.8 | 0.04 | 0.11 | 0.11 | 56 | 1012.0 |
| 20260510150518 | 61 | 293 | 7.8 | 15.6 | 0.04 | 0.11 | 0.11 | 57 | 1012.4 |
| 20260510145518 | 62 | 203 | 6.1 | 12.2 | 0.04 | 0.11 | 0.11 | 55 | 1012.4 |
| 20260510144517 | 65 | 180 | 5.2 | 17.4 | 0.04 | 0.10 | 0.10 | 51 | 1012.3 |
| 20260510143518 | 65 | 203 | 1.7 | 2.6 | 0.05 | 0.07 | 0.07 | 50 | 1011.5 |
| 20260510142517 | 64 | 180 | 0.9 | 4.3 | 0.07 | 0.07 | 0.07 | 52 | 1011.5 |
| 20260510141517 | 64 | 158 | 0.9 | 3.5 | 0.07 | 0.07 | 0.07 | 54 | 1011.7 |
| 20260510140519 | 64 | 180 | 3.5 | 7.8 | 0.07 | 0.07 | 0.07 | 54 | 1011.9 |
| 20260510135517 | 63 | 180 | 1.7 | 3.5 | 0.07 | 0.07 | 0.07 | 55 | 1012.1 |
| 20260510134538 | 63 | 180 | 8.7 | 15.6 | 0.06 | 0.06 | 0.06 | 52 | 1012.3 |
| 20260510133528 | 69 | 68 | 1.7 | 6.1 | 0.02 | 0.02 | 0.02 | 45 | 1012.2 |
| 20260510132532 | 70 | 113 | 5.2 | 11.3 | 0.00 | 0.00 | 0.00 | 39 | 1011.7 |
| 20260510131518 | 71 | 113 | 5.2 | 9.6 | 0.00 | 0.00 | 0.00 | 37 | 1011.5 |
| 20260510130534 | 72 | 90 | 1.7 | 9.6 | 0.00 | 0.00 | 0.00 | 37 | 1011.8 |
| 20260510124518 | 71 | 90 | 4.3 | 9.6 | 0.00 | 0.00 | 0.00 | 38 | 1011.6 |
| 20260510123517 | 70 | 113 | 3.5 | 7.8 | 0.00 | 0.00 | 0.00 | 39 | 1012.0 |
| 20260510122517 | 70 | 180 | 2.6 | 7.8 | 0.00 | 0.00 | 0.00 | 36 | 1012.1 |
| 20260510121538 | 69 | 180 | 6.1 | 9.6 | 0.00 | 0.00 | 0.00 | 35 | 1012.3 |
| 20260510120517 | 69 | 180 | 4.3 | 10.4 | 0.00 | 0.00 | 0.00 | 34 | 1012.3 |
| 20260510115517 | 68 | 180 | 5.2 | 8.7 | 0.00 | 0.00 | 0.00 | 36 | 1012.5 |
| 20260510114517 | 68 | 203 | 5.2 | 9.6 | 0.00 | 0.00 | 0.00 | 35 | 1012.7 |
| 20260510113517 | 69 | 180 | 4.3 | 9.6 | 0.00 | 0.00 | 0.00 | 39 | 1013.0 |
| 20260510112517 | 69 | 203 | 1.7 | 6.1 | 0.00 | 0.00 | 0.00 | 36 | 1012.9 |
| 20260510111518 | 70 | 180 | 2.6 | 7.0 | 0.00 | 0.00 | 0.00 | 34 | 1012.9 |
| 20260510110517 | 69 | 180 | 5.2 | 13.0 | 0.00 | 0.00 | 0.00 | 34 | 1013.0 |
| 20260510105518 | 69 | 180 | 3.5 | 8.7 | 0.00 | 0.00 | 0.00 | 37 | 1013.1 |
| 20260510104517 | 70 | 180 | 4.3 | 10.4 | 0.00 | 0.00 | 0.00 | 33 | 1013.2 |
| 20260510103537 | 69 | 135 | 4.3 | 9.6 | 0.00 | 0.00 | 0.00 | 39 | 1013.3 |
| 20260510102517 | 69 | 180 | 3.5 | 9.6 | 0.00 | 0.00 | 0.00 | 41 | 1013.3 |
| 20260510101517 | 69 | 158 | 2.6 | 8.7 | 0.00 | 0.00 | 0.00 | 40 | 1013.3 |
| 20260510100517 | 69 | 248 | 1.7 | 6.1 | 0.00 | 0.00 | 0.00 | 39 | 1013.4 |
| 20260510095538 | 69 | 180 | 0.9 | 3.5 | 0.00 | 0.00 | 0.00 | 40 | 1013.6 |
| 20260510094517 | 68 | 113 | 1.7 | 5.2 | 0.00 | 0.00 | 0.00 | 42 | 1013.8 |
| 20260510093537 | 67 | 180 | 1.7 | 4.3 | 0.00 | 0.00 | 0.00 | 42 | 1013.6 |
| 20260510092517 | 66 | 113 | 1.7 | 5.2 | 0.00 | 0.00 | 0.00 | 44 | 1013.8 |
| 20260510091517 | 66 | 113 | 2.6 | 7.0 | 0.00 | 0.00 | 0.00 | 47 | 1014.0 |
| 20260510090537 | 67 | 180 | 0.9 | 6.1 | 0.00 | 0.00 | 0.00 | 44 | 1014.0 |
| 20260510085517 | 66 | 0.0 | 0.0 | 0.00 | 0.00 | 0.00 | 46 | 1014.1 | |
| 20260510084517 | 65 | 293 | 0.9 | 1.7 | 0.00 | 0.00 | 0.00 | 49 | 1014.1 |
| 20260510083517 | 64 | 0.0 | 1.7 | 0.00 | 0.00 | 0.00 | 50 | 1014.2 | |
| 20260510082517 | 63 | 0.0 | 3.5 | 0.00 | 0.00 | 0.00 | 52 | 1014.3 | |
| 20260510081516 | 62 | 158 | 0.9 | 6.1 | 0.00 | 0.00 | 0.00 | 54 | 1014.2 |
| 20260510080537 | 61 | 113 | 2.6 | 6.1 | 0.00 | 0.00 | 0.00 | 55 | 1014.0 |
| 20260510075516 | 61 | 113 | 0.9 | 5.2 | 0.00 | 0.00 | 0.00 | 56 | 1014.1 |
| 20260510074517 | 60 | 68 | 0.9 | 3.5 | 0.00 | 0.00 | 0.00 | 59 | 1014.2 |
| 20260510073537 | 59 | 135 | 0.9 | 4.3 | 0.00 | 0.00 | 0.00 | 61 | 1014.1 |
| 20260510072517 | 58 | 113 | 1.7 | 7.0 | 0.00 | 0.00 | 0.00 | 62 | 1014.1 |
| 20260510071517 | 57 | 180 | 0.9 | 4.3 | 0.00 | 0.00 | 0.00 | 63 | 1014.1 |
| 20260510070517 | 57 | 135 | 1.7 | 7.0 | 0.00 | 0.00 | 0.00 | 63 | 1013.9 |
| 20260510065516 | 57 | 90 | 1.7 | 5.2 | 0.00 | 0.00 | 0.00 | 64 | 1013.8 |
| 20260510064537 | 56 | 113 | 2.6 | 6.1 | 0.00 | 0.00 | 0.00 | 64 | 1013.8 |
| 20260510063517 | 56 | 135 | 0.9 | 2.6 | 0.00 | 0.00 | 0.00 | 66 | 1013.7 |
| 20260510062516 | 55 | 203 | 0.9 | 2.6 | 0.00 | 0.00 | 0.00 | 67 | 1013.5 |
| 20260510061516 | 54 | 113 | 0.9 | 6.1 | 0.00 | 0.00 | 0.00 | 66 | 1013.6 |
| 20260510060517 | 54 | 113 | 0.9 | 3.5 | 0.00 | 0.00 | 0.00 | 68 | 1013.7 |
| 20260510055516 | 54 | 90 | 1.7 | 5.2 | 0.00 | 0.00 | 0.00 | 69 | 1013.5 |
| 20260510054517 | 53 | 113 | 0.9 | 7.8 | 0.00 | 0.00 | 0.00 | 70 | 1013.3 |
| 20260510053516 | 53 | 113 | 3.5 | 7.0 | 0.00 | 0.00 | 0.00 | 70 | 1013.2 |
| 20260510052517 | 53 | 113 | 1.7 | 6.1 | 0.00 | 0.00 | 0.00 | 70 | 1013.2 |
| 20260510051517 | 52 | 90 | 2.6 | 7.0 | 0.00 | 0.00 | 0.00 | 70 | 1013.1 |
| 20260510050517 | 52 | 90 | 3.5 | 6.1 | 0.00 | 0.00 | 0.00 | 70 | 1013.0 |
| 20260510045516 | 52 | 90 | 1.7 | 5.2 | 0.00 | 0.00 | 0.00 | 69 | 1012.9 |
| 20260510044617 | 53 | 113 | 2.6 | 6.1 | 0.00 | 0.00 | 0.00 | 69 | 1013.0 |
| 20260510043537 | 53 | 180 | 0.9 | 5.2 | 0.00 | 0.00 | 0.00 | 69 | 1012.8 |
| 20260510042517 | 53 | 135 | 0.9 | 3.5 | 0.00 | 0.00 | 0.00 | 69 | 1012.8 |
| 20260510041537 | 53 | 90 | 0.9 | 3.5 | 0.00 | 0.00 | 0.00 | 69 | 1012.9 |
| 20260510040516 | 53 | 90 | 0.9 | 2.6 | 0.00 | 0.00 | 0.00 | 69 | 1012.7 |
| 20260510035516 | 53 | 90 | 2.6 | 6.1 | 0.00 | 0.00 | 0.00 | 68 | 1012.7 |
| 20260510034517 | 53 | 90 | 1.7 | 3.5 | 0.00 | 0.00 | 0.00 | 68 | 1012.8 |
| 20260510033516 | 53 | 113 | 0.9 | 3.5 | 0.00 | 0.00 | 0.00 | 68 | 1012.5 |
| 20260510032516 | 54 | 158 | 1.7 | 6.1 | 0.00 | 0.00 | 0.00 | 68 | 1012.8 |
| 20260510031516 | 54 | 113 | 2.6 | 7.0 | 0.00 | 0.00 | 0.00 | 67 | 1012.9 |
| 20260510030537 | 54 | 135 | 1.7 | 6.1 | 0.00 | 0.00 | 0.00 | 67 | 1012.9 |
| 20260510025537 | 54 | 113 | 0.9 | 3.5 | 0.00 | 0.00 | 0.00 | 67 | 1013.1 |
| 20260510024517 | 54 | 0.0 | 1.7 | 0.00 | 0.00 | 0.00 | 67 | 1013.1 | |
| 20260510023517 | 54 | 90 | 0.9 | 3.5 | 0.00 | 0.00 | 0.00 | 68 | 1012.9 |
| 20260510022516 | 54 | 135 | 0.9 | 6.1 | 0.00 | 0.00 | 0.00 | 67 | 1013.0 |
| 20260510021517 | 54 | 113 | 3.5 | 7.0 | 0.00 | 0.00 | 0.00 | 67 | 1012.9 |
| 20260510020516 | 54 | 203 | 0.9 | 3.5 | 0.00 | 0.00 | 0.00 | 66 | 1013.3 |
| 20260510015516 | 54 | 158 | 0.9 | 4.3 | 0.00 | 0.00 | 0.00 | 66 | 1013.5 |
| 20260510014516 | 55 | 158 | 0.9 | 6.1 | 0.00 | 0.00 | 0.00 | 66 | 1013.0 |
| 20260510013516 | 55 | 113 | 0.9 | 3.5 | 0.00 | 0.00 | 0.00 | 65 | 1013.0 |
| 20260510012516 | 55 | 90 | 2.6 | 6.1 | 0.00 | 0.00 | 0.00 | 65 | 1013.0 |
| 20260510011516 | 55 | 113 | 2.6 | 6.1 | 0.00 | 0.00 | 0.00 | 65 | 1013.2 |
| 20260510010536 | 55 | 90 | 2.6 | 7.0 | 0.00 | 0.00 | 0.00 | 64 | 1013.0 |
| 20260510005516 | 56 | 113 | 1.7 | 6.1 | 0.00 | 0.00 | 0.00 | 65 | 1013.2 |
| 20260510004516 | 56 | 135 | 1.7 | 6.1 | 0.00 | 0.00 | 0.00 | 65 | 1013.1 |
| 20260510003537 | 56 | 113 | 1.7 | 5.2 | 0.00 | 0.00 | 0.00 | 64 | 1013.3 |
| 20260510002516 | 56 | 113 | 0.9 | 3.5 | 0.00 | 0.00 | 0.00 | 64 | 1013.2 |
| 20260510001536 | 56 | 113 | 3.5 | 7.0 | 0.00 | 0.00 | 0.00 | 64 | 1013.1 |
| 20260510000516 | 56 | 135 | 3.5 | 8.7 | 0.00 | 0.00 | 0.00 | 64 | 1013.2 |
| 20260509235516 | 56 | 135 | 1.7 | 6.1 | 0.00 | 0.00 | 0.00 | 63 | 1013.2 |
| 20260509234516 | 57 | 90 | 2.6 | 6.1 | 0.00 | 0.00 | 0.00 | 63 | 1013.1 |
| 20260509233516 | 57 | 90 | 4.3 | 8.7 | 0.00 | 0.00 | 0.00 | 63 | 1013.1 |
| 20260509232516 | 57 | 90 | 5.2 | 7.8 | 0.00 | 0.00 | 0.00 | 62 | 1013.0 |
| 20260509231516 | 58 | 90 | 3.5 | 7.0 | 0.00 | 0.00 | 0.00 | 61 | 1013.1 |
| 20260509230516 | 58 | 113 | 1.7 | 6.1 | 0.00 | 0.00 | 0.00 | 61 | 1013.2 |
| 20260509225516 | 58 | 135 | 2.6 | 7.8 | 0.00 | 0.00 | 0.00 | 61 | 1013.1 |
| 20260509224516 | 58 | 113 | 2.6 | 6.1 | 0.00 | 0.00 | 0.00 | 61 | 1013.3 |
| 20260509223516 | 58 | 135 | 0.9 | 3.5 | 0.00 | 0.00 | 0.00 | 61 | 1013.3 |
| 20260509222516 | 58 | 90 | 2.6 | 7.8 | 0.00 | 0.00 | 0.00 | 60 | 1013.1 |
| 20260509221516 | 59 | 113 | 1.7 | 7.0 | 0.00 | 0.00 | 0.00 | 60 | 1013.0 |
| 20260509220537 | 59 | 113 | 2.6 | 8.7 | 0.00 | 0.00 | 0.00 | 59 | 1013.0 |
| 20260509215516 | 59 | 90 | 3.5 | 8.7 | 0.00 | 0.00 | 0.00 | 59 | 1013.0 |
| 20260509214516 | 59 | 113 | 2.6 | 8.7 | 0.00 | 0.00 | 0.00 | 58 | 1013.1 |
| 20260509213515 | 60 | 113 | 2.6 | 7.0 | 0.00 | 0.00 | 0.00 | 58 | 1013.1 |
| 20260509212516 | 60 | 113 | 5.2 | 9.6 | 0.00 | 0.00 | 0.00 | 58 | 1013.1 |
| 20260509211537 | 60 | 113 | 4.3 | 9.6 | 0.00 | 0.00 | 0.00 | 58 | 1013.2 |
| 20260509210516 | 60 | 113 | 4.3 | 9.6 | 0.00 | 0.00 | 0.00 | 58 | 1013.2 |
| 20260509205516 | 60 | 113 | 4.3 | 7.8 | 0.00 | 0.00 | 0.00 | 57 | 1013.3 |
| 20260509204517 | 61 | 135 | 2.6 | 8.7 | 0.00 | 0.00 | 0.00 | 57 | 1013.3 |
| 20260509203619 | 61 | 113 | 5.2 | 8.7 | 0.00 | 0.00 | 0.00 | 56 | 1013.3 |
| 20260509202518 | 62 | 90 | 6.1 | 10.4 | 0.00 | 0.00 | 0.00 | 55 | 1013.0 |
| 20260509201538 | 62 | 90 | 5.2 | 9.6 | 0.00 | 0.00 | 0.00 | 55 | 1013.0 |
| 20260509200558 | 62 | 90 | 6.1 | 10.4 | 0.00 | 0.00 | 0.00 | 56 | 1013.1 |
| 20260509195517 | 62 | 90 | 4.3 | 7.8 | 0.00 | 0.00 | 0.00 | 56 | 1012.9 |
| 20260509194517 | 62 | 90 | 4.3 | 7.0 | 0.00 | 0.00 | 0.00 | 55 | 1012.8 |
| 20260509193518 | 63 | 68 | 2.6 | 7.0 | 0.00 | 0.00 | 0.00 | 55 | 1012.7 |
| 20260509192517 | 63 | 0.0 | 2.6 | 0.00 | 0.00 | 0.00 | 54 | 1012.7 | |
| 20260509191518 | 63 | 0.0 | 0.0 | 0.00 | 0.00 | 0.00 | 53 | 1012.6 | |
| 20260509190518 | 63 | 113 | 1.7 | 3.5 | 0.00 | 0.00 | 0.00 | 52 | 1012.3 |
| 20260509185518 | 63 | 90 | 1.7 | 6.1 | 0.00 | 0.00 | 0.00 | 52 | 1012.1 |
| 20260509184538 | 63 | 113 | 4.3 | 9.6 | 0.00 | 0.00 | 0.00 | 52 | 1011.6 |
| 20260509183518 | 63 | 113 | 4.3 | 12.2 | 0.00 | 0.00 | 0.00 | 51 | 1011.5 |
| 20260509182518 | 63 | 90 | 6.1 | 10.4 | 0.00 | 0.00 | 0.00 | 50 | 1011.2 |
| 20260509181538 | 63 | 90 | 8.7 | 13.0 | 0.00 | 0.00 | 0.00 | 50 | 1011.0 |
| 20260509180517 | 64 | 90 | 6.1 | 13.0 | 0.00 | 0.00 | 0.00 | 49 | 1011.1 |
| 20260509175517 | 64 | 90 | 6.1 | 11.3 | 0.00 | 0.00 | 0.00 | 50 | 1011.0 |
| 20260509174518 | 64 | 113 | 7.0 | 13.9 | 0.00 | 0.00 | 0.00 | 50 | 1010.8 |
| 20260509173517 | 65 | 113 | 7.0 | 13.0 | 0.00 | 0.00 | 0.00 | 49 | 1010.9 |
| 20260509172517 | 65 | 113 | 5.2 | 13.0 | 0.00 | 0.00 | 0.00 | 50 | 1010.9 |
| 20260509171518 | 65 | 113 | 7.0 | 11.3 | 0.00 | 0.00 | 0.00 | 50 | 1010.7 |
| 20260509170518 | 65 | 113 | 6.1 | 11.3 | 0.00 | 0.00 | 0.00 | 51 | 1010.7 |
| 20260509165518 | 65 | 113 | 6.1 | 15.6 | 0.00 | 0.00 | 0.00 | 51 | 1010.9 |
| 20260509164537 | 65 | 113 | 7.0 | 13.9 | 0.00 | 0.00 | 0.00 | 53 | 1010.8 |
| 20260509163517 | 65 | 90 | 7.0 | 14.8 | 0.00 | 0.00 | 0.00 | 52 | 1010.9 |
| 20260509162517 | 65 | 113 | 7.0 | 13.9 | 0.00 | 0.00 | 0.00 | 51 | 1010.9 |